Time,TemperatureF,DewpointF,PressureIn,WindDirection,WindDirectionDegrees,WindSpeedMPH,WindSpeedGustMPH,Humidity,HourlyPrecipIn,Conditions,Clouds,dailyrainin,SoftwareType,DateUTC
2013-01-01 00:00:00,53.1,44.9,29.97,NNW,330,0.0,0.0,74,0.00,,,0.00,HomebrewedOnLinux,2013-01-01 05:00:00,
2013-01-01 08:45:00,48.7,45.0,29.91,WNW,293,0.0,0.0,87,-99.99,,,-99.99,HomebrewedOnLinux,2013-01-01 13:45:00,
2013-01-01 08:50:00,48.7,45.0,29.91,WNW,293,0.0,0.0,87,-99.99,,,-99.99,HomebrewedOnLinux,2013-01-01 13:50:00,
2013-01-01 08:55:00,48.9,45.2,29.91,WNW,293,0.0,0.0,87,-99.99,,,-99.99,HomebrewedOnLinux,2013-01-01 13:55:00,
2013-01-01 09:00:00,48.9,45.2,29.91,WNW,293,0.0,0.0,87,-99.99,,,-99.99,HomebrewedOnLinux,2013-01-01 14:00:00,
2013-01-01 09:05:00,48.9,45.2,29.91,WNW,293,0.0,0.0,87,-99.99,,,-99.99,HomebrewedOnLinux,2013-01-01 14:05:00,
2013-01-01 09:10:00,48.9,45.5,29.88,WNW,293,0.0,0.0,88,-99.99,,,-99.99,HomebrewedOnLinux,2013-01-01 14:10:00,
2013-01-01 09:20:00,49.5,46.1,29.88,ESE,114,0.0,0.0,88,-99.99,,,-99.99,HomebrewedOnLinux,2013-01-01 14:20:00,
2013-01-01 09:30:00,49.8,46.4,29.91,ESE,113,0.0,0.0,88,-99.99,,,-99.99,HomebrewedOnLinux,2013-01-01 14:30:00,
2013-01-01 09:35:00,49.8,46.4,29.91,ESE,113,0.0,0.0,88,-99.99,,,-99.99,HomebrewedOnLinux,2013-01-01 14:35:00,
2013-01-01 09:45:00,50.4,46.6,29.91,ESE,113,0.0,0.0,87,-99.99,,,-99.99,HomebrewedOnLinux,2013-01-01 14:45:00,
2013-01-01 09:55:00,50.9,47.3,29.91,SSW,194,0.0,0.0,87,-99.99,,,-99.99,HomebrewedOnLinux,2013-01-01 14:55:00,
2013-01-01 10:00:00,51.3,47.8,29.91,SW,219,0.0,0.0,88,-99.99,,,-99.99,HomebrewedOnLinux,2013-01-01 15:00:00,
2013-01-01 10:10:00,52.0,47.9,29.88,WSW,253,0.0,0.0,86,-99.99,,,-99.99,HomebrewedOnLinux,2013-01-01 15:10:00,
2013-01-01 10:20:00,52.5,48.1,29.88,WSW,242,0.0,0.0,85,-99.99,,,-99.99,HomebrewedOnLinux,2013-01-01 15:20:00,
2013-01-01 10:30:00,52.9,48.4,29.94,SW,225,0.0,0.0,85,-99.99,,,-99.99,HomebrewedOnLinux,2013-01-01 15:30:00,
2013-01-01 10:40:00,53.2,48.5,29.91,SW,223,0.0,0.0,84,-99.99,,,-99.99,HomebrewedOnLinux,2013-01-01 15:40:00,
2013-01-01 10:45:00,53.4,48.7,29.91,North,-999,-999.0,-999.0,84,-99.99,,,-99.99,HomebrewedOnLinux,2013-01-01 15:45:00,
2013-01-01 10:50:00,53.8,49.1,29.91,North,-999,-999.0,-999.0,84,-99.99,,,-99.99,HomebrewedOnLinux,2013-01-01 15:50:00,
2013-01-01 10:55:00,54.0,49.2,29.91,North,-999,-999.0,-999.0,84,-99.99,,,-99.99,HomebrewedOnLinux,2013-01-01 15:55:00,
2013-01-01 11:05:00,54.3,49.3,29.91,North,-999,-999.0,-999.0,83,-99.99,,,-99.99,HomebrewedOnLinux,2013-01-01 16:05:00,
2013-01-01 11:10:00,54.5,49.6,29.88,North,-999,-999.0,-999.0,84,-99.99,,,-99.99,HomebrewedOnLinux,2013-01-01 16:10:00,
2013-01-01 11:20:00,55.0,50.0,29.88,SW,231,0.0,0.0,83,-99.99,,,-99.99,HomebrewedOnLinux,2013-01-01 16:20:00,
2013-01-01 11:30:00,55.4,50.1,29.91,SW,225,0.0,0.0,82,-99.99,,,-99.99,HomebrewedOnLinux,2013-01-01 16:30:00,
2013-01-01 11:40:00,55.8,50.3,29.91,South,176,0.0,0.0,82,-99.99,,,-99.99,HomebrewedOnLinux,2013-01-01 16:40:00,
2013-01-01 11:45:00,55.9,50.7,29.91,East,87,0.0,0.0,83,-99.99,,,-99.99,HomebrewedOnLinux,2013-01-01 16:45:00,
2013-01-01 11:50:00,56.1,50.7,29.91,East,90,0.0,0.0,82,-99.99,,,-99.99,HomebrewedOnLinux,2013-01-01 16:50:00,
2013-01-01 11:55:00,56.3,50.9,29.91,East,90,0.0,0.0,82,-99.99,,,-99.99,HomebrewedOnLinux,2013-01-01 16:55:00,
2013-01-01 12:00:00,56.3,50.9,29.91,North,-999,-999.0,-999.0,82,-99.99,,,-99.99,HomebrewedOnLinux,2013-01-01 17:00:00,
2013-01-01 12:10:00,56.8,51.4,29.88,North,-999,-999.0,-999.0,82,-99.99,,,-99.99,HomebrewedOnLinux,2013-01-01 17:10:00,
2013-01-01 12:15:00,57.2,51.6,29.88,North,-999,-999.0,-999.0,81,-99.99,,,-99.99,HomebrewedOnLinux,2013-01-01 17:15:00,
2013-01-01 12:20:00,57.6,51.5,29.88,North,-999,-999.0,-999.0,80,-99.99,,,-99.99,HomebrewedOnLinux,2013-01-01 17:20:00,
2013-01-01 12:25:00,57.4,51.0,29.85,East,90,1.0,1.0,79,-99.99,,,-99.99,HomebrewedOnLinux,2013-01-01 17:25:00,
2013-01-01 12:30:00,57.2,50.5,29.85,East,90,0.0,0.0,78,-99.99,,,-99.99,HomebrewedOnLinux,2013-01-01 17:30:00,
2013-01-01 12:35:00,57.4,50.9,29.85,North,-999,-999.0,-999.0,79,-99.99,,,-99.99,HomebrewedOnLinux,2013-01-01 17:35:00,
2013-01-01 12:45:00,58.1,51.6,29.85,North,-999,-999.0,-999.0,79,-99.99,,,-99.99,HomebrewedOnLinux,2013-01-01 17:45:00,
2013-01-01 12:50:00,58.3,51.4,29.85,North,-999,-999.0,-999.0,78,-99.99,,,-99.99,HomebrewedOnLinux,2013-01-01 17:50:00,
2013-01-01 12:55:00,58.5,51.6,29.85,North,-999,-999.0,-999.0,78,-99.99,,,-99.99,HomebrewedOnLinux,2013-01-01 17:55:00,
2013-01-01 13:05:00,58.8,51.6,29.85,East,90,2.0,2.0,77,-99.99,,,-99.99,HomebrewedOnLinux,2013-01-01 18:05:00,
2013-01-01 13:15:00,59.5,51.8,29.82,North,-999,-999.0,-999.0,76,-99.99,,,-99.99,HomebrewedOnLinux,2013-01-01 18:15:00,
2013-01-01 13:25:00,60.1,52.1,29.82,North,-999,-999.0,-999.0,75,-99.99,,,-99.99,HomebrewedOnLinux,2013-01-01 18:25:00,
2013-01-01 13:30:00,60.1,52.2,29.82,NE,45,0.0,0.0,75,-99.99,,,-99.99,HomebrewedOnLinux,2013-01-01 18:30:00,
2013-01-01 13:40:00,60.6,52.6,29.79,East,90,2.0,2.0,75,-99.99,,,-99.99,HomebrewedOnLinux,2013-01-01 18:40:00,
2013-01-01 13:45:00,61.0,52.6,29.79,North,-999,-999.0,-999.0,74,-99.99,,,-99.99,HomebrewedOnLinux,2013-01-01 18:45:00,
2013-01-01 13:55:00,61.5,52.8,29.79,North,-999,-999.0,-999.0,73,-99.99,,,-99.99,HomebrewedOnLinux,2013-01-01 18:55:00,
2013-01-01 14:00:00,61.7,53.3,29.79,North,-999,-999.0,-999.0,74,-99.99,,,-99.99,HomebrewedOnLinux,2013-01-01 19:00:00,
2013-01-01 14:05:00,61.9,53.4,29.79,ESE,105,2.0,3.0,74,-99.99,,,-99.99,HomebrewedOnLinux,2013-01-01 19:05:00,
2013-01-01 14:10:00,61.7,53.0,29.79,SSE,158,4.0,4.0,73,-99.99,,,-99.99,HomebrewedOnLinux,2013-01-01 19:10:00,
2013-01-01 14:20:00,61.3,52.5,29.79,ESE,108,2.0,2.0,73,-99.99,,,-99.99,HomebrewedOnLinux,2013-01-01 19:20:00,
2013-01-01 14:25:00,61.0,52.3,29.79,ESE,113,2.0,2.0,73,-99.99,,,-99.99,HomebrewedOnLinux,2013-01-01 19:25:00,
2013-01-01 14:35:00,61.2,52.4,29.79,ENE,68,0.0,1.0,73,-99.99,,,-99.99,HomebrewedOnLinux,2013-01-01 19:35:00,
2013-01-01 14:40:00,61.2,52.4,29.79,ENE,59,1.0,3.0,73,-99.99,,,-99.99,HomebrewedOnLinux,2013-01-01 19:40:00,
2013-01-01 14:50:00,61.2,52.4,29.79,NE,50,0.0,2.0,73,-99.99,,,-99.99,HomebrewedOnLinux,2013-01-01 19:50:00,
2013-01-01 15:00:00,61.3,52.4,29.79,East,90,0.0,0.0,72,-99.99,,,-99.99,HomebrewedOnLinux,2013-01-01 20:00:00,
2013-01-01 15:10:00,61.3,52.6,29.79,East,90,0.0,0.0,73,-99.99,,,-99.99,HomebrewedOnLinux,2013-01-01 20:10:00,
2013-01-01 15:15:00,61.5,52.8,29.79,WSW,247,0.0,0.0,73,-99.99,,,-99.99,HomebrewedOnLinux,2013-01-01 20:15:00,
2013-01-01 15:20:00,61.7,52.7,29.79,WSW,239,0.0,0.0,72,-99.99,,,-99.99,HomebrewedOnLinux,2013-01-01 20:20:00,
2013-01-01 15:25:00,61.9,52.8,29.79,ENE,70,0.0,2.0,72,-99.99,,,-99.99,HomebrewedOnLinux,2013-01-01 20:25:00,
2013-01-01 15:35:00,62.1,53.2,29.79,East,90,0.0,0.0,73,-99.99,,,-99.99,HomebrewedOnLinux,2013-01-01 20:35:00,
2013-01-01 15:40:00,61.9,53.1,29.79,East,84,0.0,0.0,73,-99.99,,,-99.99,HomebrewedOnLinux,2013-01-01 20:40:00,
2013-01-01 15:45:00,61.9,53.5,29.79,West,270,0.0,1.0,74,-99.99,,,-99.99,HomebrewedOnLinux,2013-01-01 20:45:00,
2013-01-01 15:55:00,61.7,53.7,29.79,WSW,249,0.0,0.0,75,-99.99,,,-99.99,HomebrewedOnLinux,2013-01-01 20:55:00,
2013-01-01 16:00:00,61.5,53.7,29.79,WSW,247,0.0,0.0,76,-99.99,,,-99.99,HomebrewedOnLinux,2013-01-01 21:00:00,
2013-01-01 16:10:00,61.0,53.5,29.79,WNW,284,0.0,0.0,76,-99.99,,,-99.99,HomebrewedOnLinux,2013-01-01 21:10:00,
2013-01-01 16:15:00,61.0,53.7,29.79,West,267,0.0,0.0,77,-99.99,,,-99.99,HomebrewedOnLinux,2013-01-01 21:15:00,
2013-01-01 16:20:00,60.8,53.7,29.79,North,359,0.0,0.0,77,-99.99,,,-99.99,HomebrewedOnLinux,2013-01-01 21:20:00,
2013-01-01 16:30:00,60.4,53.9,29.79,West,270,0.0,0.0,79,-99.99,,,-99.99,HomebrewedOnLinux,2013-01-01 21:30:00,
2013-01-01 16:35:00,60.4,54.1,29.79,West,270,0.0,0.0,80,-99.99,,,-99.99,HomebrewedOnLinux,2013-01-01 21:35:00,
2013-01-01 16:40:00,60.1,53.9,29.79,West,276,0.0,0.0,80,-99.99,,,-99.99,HomebrewedOnLinux,2013-01-01 21:40:00,
2013-01-01 16:45:00,60.1,53.9,29.79,NNE,30,0.0,0.0,80,-99.99,,,-99.99,HomebrewedOnLinux,2013-01-01 21:45:00,
2013-01-01 16:55:00,59.9,53.4,29.79,ESE,113,2.0,2.0,79,-99.99,,,-99.99,HomebrewedOnLinux,2013-01-01 21:55:00,
2013-01-01 17:05:00,59.7,52.8,29.79,ESE,111,2.0,3.0,78,-99.99,,,-99.99,HomebrewedOnLinux,2013-01-01 22:05:00,
2013-01-01 17:10:00,59.5,52.4,29.79,ESE,106,2.0,3.0,77,-99.99,,,-99.99,HomebrewedOnLinux,2013-01-01 22:10:00,
2013-01-01 17:15:00,59.5,52.3,29.79,East,93,1.0,2.0,77,-99.99,,,-99.99,HomebrewedOnLinux,2013-01-01 22:15:00,
2013-01-01 17:20:00,59.4,52.1,29.79,ENE,73,1.0,2.0,77,-99.99,,,-99.99,HomebrewedOnLinux,2013-01-01 22:20:00,
2013-01-01 17:25:00,59.4,52.1,29.79,ENE,78,2.0,3.0,77,-99.99,,,-99.99,HomebrewedOnLinux,2013-01-01 22:25:00,
2013-01-01 17:35:00,59.2,52.0,29.79,East,99,2.0,3.0,77,-99.99,,,-99.99,HomebrewedOnLinux,2013-01-01 22:35:00,
2013-01-01 17:40:00,59.0,51.8,29.79,ENE,68,0.0,2.0,77,-99.99,,,-99.99,HomebrewedOnLinux,2013-01-01 22:40:00,
2013-01-01 17:45:00,58.8,51.6,29.79,ENE,68,0.0,0.0,77,-99.99,,,-99.99,HomebrewedOnLinux,2013-01-01 22:45:00,
2013-01-01 17:50:00,58.8,51.9,29.79,East,88,1.0,3.0,78,-99.99,,,-99.99,HomebrewedOnLinux,2013-01-01 22:50:00,
2013-01-01 17:55:00,58.6,51.7,29.79,ENE,62,1.0,2.0,78,-99.99,,,-99.99,HomebrewedOnLinux,2013-01-01 22:55:00,
2013-01-01 18:00:00,58.6,51.7,29.79,East,80,2.0,2.0,78,-99.99,,,-99.99,HomebrewedOnLinux,2013-01-01 23:00:00,
2013-01-01 18:05:00,58.5,51.6,29.79,East,95,2.0,3.0,78,-99.99,,,-99.99,HomebrewedOnLinux,2013-01-01 23:05:00,
2013-01-01 18:15:00,58.3,51.4,29.77,East,89,1.0,3.0,78,-99.99,,,-99.99,HomebrewedOnLinux,2013-01-01 23:15:00,
2013-01-01 18:20:00,58.1,51.3,29.77,ESE,112,2.0,3.0,78,-99.99,,,-99.99,HomebrewedOnLinux,2013-01-01 23:20:00,
2013-01-01 18:30:00,57.9,51.4,29.79,East,82,0.0,2.0,79,-99.99,,,-99.99,HomebrewedOnLinux,2013-01-01 23:30:00,
2013-01-01 18:35:00,57.9,51.4,29.79,East,82,1.0,3.0,79,-99.99,,,-99.99,HomebrewedOnLinux,2013-01-01 23:35:00,
2013-01-01 18:40:00,57.7,51.6,29.77,East,98,2.0,3.0,80,-99.99,,,-99.99,HomebrewedOnLinux,2013-01-01 23:40:00,
2013-01-01 18:50:00,57.6,51.7,29.77,ENE,64,0.0,0.0,81,-99.99,,,-99.99,HomebrewedOnLinux,2013-01-01 23:50:00,
2013-01-01 18:55:00,57.6,51.8,29.77,East,95,1.0,2.0,81,-99.99,,,-99.99,HomebrewedOnLinux,2013-01-01 23:55:00,
2013-01-01 19:05:00,57.2,51.8,29.77,SE,136,0.0,0.0,82,-99.99,,,-99.99,HomebrewedOnLinux,2013-01-02 00:05:00,
2013-01-01 19:15:00,57.0,51.9,29.77,ESE,121,1.0,2.0,83,-99.99,,,-99.99,HomebrewedOnLinux,2013-01-02 00:15:00,
2013-01-01 19:25:00,56.8,52.0,29.77,ESE,111,1.0,2.0,84,-99.99,,,-99.99,HomebrewedOnLinux,2013-01-02 00:25:00,
2013-01-01 19:30:00,56.8,52.1,29.77,ENE,70,0.0,0.0,84,-99.99,,,-99.99,HomebrewedOnLinux,2013-01-02 00:30:00,
2013-01-01 19:35:00,56.8,52.1,29.77,ENE,63,0.0,0.0,84,-99.99,,,-99.99,HomebrewedOnLinux,2013-01-02 00:35:00,
2013-01-01 19:40:00,56.8,52.1,29.77,ENE,74,0.0,0.0,84,-99.99,,,-99.99,HomebrewedOnLinux,2013-01-02 00:40:00,
2013-01-01 19:50:00,56.7,51.9,29.77,NE,35,0.0,1.0,84,-99.99,,,-99.99,HomebrewedOnLinux,2013-01-02 00:50:00,
2013-01-01 20:00:00,56.7,52.2,29.77,NE,45,0.0,0.0,85,-99.99,,,-99.99,HomebrewedOnLinux,2013-01-02 01:00:00,
2013-01-01 20:05:00,56.7,52.2,29.77,NNE,33,0.0,0.0,85,-99.99,,,-99.99,HomebrewedOnLinux,2013-01-02 01:05:00,
2013-01-01 20:15:00,56.7,52.5,29.74,NE,45,0.0,0.0,86,-99.99,,,-99.99,HomebrewedOnLinux,2013-01-02 01:15:00,
2013-01-01 20:25:00,56.5,52.4,29.74,SSW,202,0.0,0.0,86,-99.99,,,-99.99,HomebrewedOnLinux,2013-01-02 01:25:00,
2013-01-01 20:35:00,56.3,52.5,29.74,SE,130,0.0,0.0,87,-99.99,,,-99.99,HomebrewedOnLinux,2013-01-02 01:35:00,
2013-01-01 20:40:00,56.3,52.5,29.71,West,262,0.0,0.0,87,-99.99,,,-99.99,HomebrewedOnLinux,2013-01-02 01:40:00,
2013-01-01 20:50:00,56.3,52.7,29.71,South,190,0.0,0.0,88,-99.99,,,-99.99,HomebrewedOnLinux,2013-01-02 01:50:00,
2013-01-01 21:00:00,56.1,52.6,29.74,WSW,247,0.0,0.0,88,-99.99,,,-99.99,HomebrewedOnLinux,2013-01-02 02:00:00,
2013-01-01 21:05:00,56.1,52.6,29.74,WSW,247,0.0,0.0,88,-99.99,,,-99.99,HomebrewedOnLinux,2013-01-02 02:05:00,
2013-01-01 21:15:00,56.1,52.6,29.74,SW,222,0.0,0.0,88,-99.99,,,-99.99,HomebrewedOnLinux,2013-01-02 02:15:00,
2013-01-01 21:25:00,56.1,52.8,29.74,ENE,64,0.0,1.0,88,-99.99,,,-99.99,HomebrewedOnLinux,2013-01-02 02:25:00,
2013-01-01 21:35:00,56.1,52.9,29.74,ENE,66,1.0,2.0,89,-99.99,,,-99.99,HomebrewedOnLinux,2013-01-02 02:35:00,
2013-01-01 21:45:00,56.3,53.1,29.74,ENE,66,1.0,3.0,89,-99.99,,,-99.99,HomebrewedOnLinux,2013-01-02 02:45:00,
2013-01-01 21:50:00,56.1,52.9,29.74,North,358,1.0,2.0,89,-99.99,,,-99.99,HomebrewedOnLinux,2013-01-02 02:50:00,
2013-01-01 22:00:00,56.1,53.0,29.77,East,79,2.0,2.0,89,-99.99,,,-99.99,HomebrewedOnLinux,2013-01-02 03:00:00,
2013-01-01 22:10:00,55.9,53.3,29.74,North,-999,-999.0,-999.0,91,-99.99,,,-99.99,HomebrewedOnLinux,2013-01-02 03:10:00,
2013-01-01 22:15:00,55.9,53.3,29.74,North,-999,-999.0,-999.0,91,-99.99,,,-99.99,HomebrewedOnLinux,2013-01-02 03:15:00,
2013-01-01 22:25:00,55.8,53.5,29.74,North,-999,-999.0,-999.0,92,-99.99,,,-99.99,HomebrewedOnLinux,2013-01-02 03:25:00,
2013-01-01 22:35:00,55.6,53.6,29.74,North,349,0.0,0.0,93,-99.99,,,-99.99,HomebrewedOnLinux,2013-01-02 03:35:00,
2013-01-01 22:45:00,55.6,53.6,29.74,ENE,57,0.0,0.0,93,-99.99,,,-99.99,HomebrewedOnLinux,2013-01-02 03:45:00,
2013-01-01 22:50:00,55.4,53.5,29.74,NE,45,0.0,0.0,93,-99.99,,,-99.99,HomebrewedOnLinux,2013-01-02 03:50:00,
2013-01-01 23:00:00,55.4,53.7,29.74,NNE,22,0.0,0.0,94,-99.99,,,-99.99,HomebrewedOnLinux,2013-01-02 04:00:00,
2013-01-01 23:10:00,55.4,53.7,29.74,NNE,22,0.0,0.0,94,-99.99,,,-99.99,HomebrewedOnLinux,2013-01-02 04:10:00,
2013-01-01 23:20:00,55.4,53.8,29.74,NNE,22,0.0,0.0,94,-99.99,,,-99.99,HomebrewedOnLinux,2013-01-02 04:20:00,
2013-01-01 23:30:00,55.4,53.8,29.74,NNE,19,0.0,0.0,94,-99.99,,,-99.99,HomebrewedOnLinux,2013-01-02 04:30:00,
2013-01-01 23:35:00,55.2,53.7,29.74,NE,45,0.0,0.0,95,-99.99,,,-99.99,HomebrewedOnLinux,2013-01-02 04:35:00,
2013-01-01 23:45:00,55.2,53.8,29.74,ENE,66,0.0,0.0,95,-99.99,,,-99.99,HomebrewedOnLinux,2013-01-02 04:45:00,
2013-01-01 23:55:00,55.2,54.1,29.74,ENE,68,0.0,0.0,96,-99.99,,,-99.99,HomebrewedOnLinux,2013-01-02 04:55:00,